www.pogodaiklimat.ru

Погода и климат >> Архив погоды >> Австралия >> Западная Австралия >> Телфер


ПОГОДА в Телфере

  • Прогноз погоды в Телфере
  • Монитор погоды в Телфере

АРХИВ ПОГОДЫ в Телфере

Время (UTC), дата Ветер
(напр.,м/с)
 
Видим.   Явления Облачность Т
(С)
Тd
(С)
f
(%)
Тe
(С)
Тes
(С)
Комфортность P
(гПа)
Po
(гПа)
Тmin
(С)
Tmax
(С)
R
(мм)
R24
(мм)
S
(см)
04 12.07 ЮВ 6 н/о 6/0
[]
+24.8 -4.5 14 +23 +26 комфорт 1022.5 988.2
06 12.07 ЮВ 6 н/о н/о +27.0 -3.7 13 +24 +24 комфорт 1020.6 986.4
07 12.07 В 6 н/о н/о +27.2 -3.6 13 +24 +24 комфорт 1020.2 986.0
09 12.07 ЮВ 6 н/о н/о +25.5 -3.9 14 +23 +23 комфорт 1020.8 986.6
10 12.07 ЮВ 4 н/о н/о +21.7 -3.6 18 +21 +21 комфорт 1021.2 987.0
12 12.07 ЮВ 4 н/о н/о +18.9 -3.3 22 +19 +19 1022.5 988.2
13 12.07 ЮВ 4 н/о н/о +17.1 -3.6 24 +17 +17 1022.8 988.5 +27.9
15 12.07 ЮВ 4 н/о н/о +16.5 -3.6 25 +16 +16 1022.4 988.1
16 12.07 ЮВ 4 н/о н/о +16.0 -4.0 25 +15 +15 1022.4 988.1
18 12.07 ЮВ 7 н/о н/о +16.0 -4.0 25 +15 +15 1022.6 988.3
19 12.07 ЮВ 7 н/о н/о +14.0 -5.2 26 +12 +12 1022.8 988.5
21 12.07 ЮВ 5 н/о н/о +12.6 -6.4 26 +11 +11 1023.7 989.4
22 12.07 ЮВ 6 н/о н/о +12.7 -6.3 26 +11 +11 1024.0 989.7
00 13.07 ЮВ 7 н/о н/о +15.0 -4.8 25 +14 +14 1025.9 991.5
01 13.07 ЮВ 9 н/о н/о +18.5 -4.9 20 +18 +18 1026.5 992.1 +12.1
03 13.07 ЮВ 9 н/о н/о +23.1 -5.8 14 +21 +21 комфорт 1025.4 991.0
04 13.07 ЮВ 9 н/о н/о +24.7 -6.6 12 +22 +22 комфорт 1024.1 989.8
06 13.07 В 9 н/о н/о +26.3 -6.5 11 +23 +23 комфорт 1021.6 987.4
07 13.07 В 8 н/о н/о +26.3 -9.1 9 +23 +23 комфорт 1021.2 987.0
09 13.07 ЮВ 8 н/о н/о +24.5 -10.4 9 +22 +22 комфорт 1021.6 987.4
10 13.07 ЮВ 5 н/о н/о +21.8 -9.9 11 +20 +20 1022.3 988.0
12 13.07 ЮВ 5 н/о н/о +18.2 -7.2 17 +18 +18 1023.4 989.1
13 13.07 ЮВ 5 н/о н/о +17.0 -6.1 20 +16 +16 1023.9 989.6 +27.1
15 13.07 ЮВ 6 н/о н/о +16.5 -3.0 26 +16 +16 1023.7 989.4
18 13.07 ЮВ 6 н/о н/о +13.6 -1.9 34 +12 +12 1023.8 989.5
19 13.07 ЮВ 7 н/о н/о +13.1 -1.2 37 +11 +11 1023.9 989.6
21 13.07 ЮВ 6 н/о н/о +11.7 -1.1 41 +9 +9 1024.2 989.9
22 13.07 ЮВ 7 н/о н/о +11.2 -0.9 43 +8 +8 1024.9 990.6
00 14.07 ЮВ 8 н/о н/о +13.7 -0.3 38 +11 +11 1026.3 991.9
01 14.07 В 9 н/о н/о +16.3 0.0 33 +15 +15 1026.5 992.1 +10.8
03 14.07 В 8 н/о н/о +20.6 +1.0 27 +20 +20 1025.4 991.0
04 14.07 В 8 н/о н/о +21.5 +0.7 25 +21 +21 комфорт 1023.8 989.5
06 14.07 ЮВ 8 н/о н/о +23.3 +0.4 22 +22 +22 комфорт 1022.0 987.8
07 14.07 ЮВ 8 н/о н/о +24.0 +1.0 22 +23 +23 комфорт 1021.4 987.2
09 14.07 ЮВ 7 н/о н/о +22.0 -0.1 23 +21 +21 комфорт 1021.8 987.6
10 14.07 ЮВ 5 н/о н/о +19.4 -0.1 27 +19 +19 1022.4 988.1
12 14.07 ЮВ 4 н/о н/о +16.3 -0.4 32 +16 +16 1023.1 988.8
13 14.07 ЮВ 5 н/о н/о +15.6 -0.2 34 +15 +15 1023.3 989.0 +24.5
15 14.07 В 6 н/о н/о +14.1 -1.5 34 +13 +13 1023.3 989.0
16 14.07 В 5 н/о н/о +13.2 -2.3 34 +12 +12 1023.3 989.0
18 14.07 ЮВ 5 н/о н/о +11.2 -3.3 36 +9 +9 1023.4 989.1
19 14.07 ЮВ 5 н/о н/о +10.5 -3.2 38 +8 +8 1023.6 989.3
21 14.07 ЮВ 6 н/о н/о +9.9 -2.7 41 +7 +7 1023.5 989.2
22 14.07 ЮВ 5 н/о н/о +9.4 -2.5 43 +7 +7 1024.2 989.9
00 15.07 ЮВ 7 н/о н/о +13.2 -2.3 34 +11 +11 1025.3 990.9
01 15.07 В 8 н/о н/о +16.4 -2.1 28 +15 +15 1025.4 991.0 +8.8
03 15.07 В 7 н/о н/о +19.8 -1.9 23 +19 +19 1024.1 989.8
04 15.07 В 7 н/о н/о +21.4 -2.5 20 +21 +21 комфорт 1022.8 988.5
06 15.07 В 7 н/о н/о +23.3 -4.8 15 +21 +21 комфорт 1020.7 986.5
07 15.07 ЮВ 7 н/о н/о +23.7 -4.4 15 +22 +22 комфорт 1019.9 985.7
09 15.07 ЮВ 7 н/о н/о +21.7 -4.4 17 +21 +21 комфорт 1020.0 985.8
10 15.07 ЮВ 5 н/о н/о +19.0 -3.8 21 +19 +19 1020.6 986.4
12 15.07 ЮВ 4 н/о н/о +15.6 -3.8 26 +15 +15 1022.3 988.0
13 15.07 ЮВ 5 н/о н/о +14.2 -4.0 28 +13 +13 1022.6 988.3 +24.0
15 15.07 ЮВ 6 н/о н/о +13.8 -3.9 29 +12 +12 1022.5 988.2
16 15.07 ЮВ 6 н/о н/о +14.0 -3.7 29 +12 +12 1022.5 988.2
18 15.07 ЮВ 5 н/о н/о +10.8 -4.4 34 +9 +9 1022.2 987.9
19 15.07 ЮВ 6 н/о н/о +10.8 -4.4 34 +8 +8 1022.3 988.0
21 15.07 ЮВ 6 н/о н/о +10.1 -5.0 34 +7 +7 1022.4 988.1
22 15.07 ЮВ 6 н/о н/о +9.3 -5.0 36 +6 +6 1022.7 988.4
00 16.07 ЮВ 7 н/о н/о +12.2 -4.4 31 +10 +10 1024.0 989.7
01 16.07 ЮВ 7 н/о н/о +15.7 -3.2 27 +14 +14 1024.5 990.2 +8.6
03 16.07 В 7 н/о н/о +20.6 -3.1 20 +20 +20 1023.6 989.3
04 16.07 В 7 н/о н/о +22.3 -4.7 16 +21 +21 комфорт 1022.3 988.0
06 16.07 В 8 н/о н/о +24.8 -6.5 12 +22 +22 комфорт 1020.2 986.0
07 16.07 В 8 н/о н/о +24.7 -7.7 11 +22 +22 комфорт 1019.9 985.7
09 16.07 ЮВ 7 н/о н/о +23.0 -5.9 14 +21 +21 комфорт 1019.8 985.6
10 16.07 ЮВ 4 н/о н/о +19.7 -6.0 17 +19 +19 1020.3 986.1
12 16.07 ЮВ 5 н/о н/о +17.0 -5.5 21 +16 +16 1021.3 987.1
13 16.07 ЮВ 4 н/о н/о +15.1 -5.3 24 +14 +14 1021.6 987.4 +25.6
15 16.07 ЮВ 5 н/о н/о +14.0 -4.7 27 +13 +13 1021.5 987.3
16 16.07 ЮВ 4 н/о н/о +11.5 -5.0 31 +10 +10 1021.4 987.2
18 16.07 ЮВ 4 н/о н/о +10.6 -4.6 34 +9 +9 1020.6 986.4
19 16.07 ЮВ 6 н/о н/о +10.9 -4.3 34 +8 +8 1020.2 986.0
21 16.07 ЮВ 5 н/о н/о +8.9 -4.6 38 +6 +6 1020.7 986.5
22 16.07 ЮВ 6 н/о н/о +8.6 -4.9 38 +5 +5 1020.8 986.6
00 17.07 ЮВ 6 н/о н/о +12.8 -4.3 30 +11 +11 1022.2 987.9
01 17.07 В 7 н/о н/о +16.8 -3.3 25 +16 +16 1022.4 988.1 +8.2
03 17.07 В 6 н/о н/о +21.9 -4.2 17 +21 +21 комфорт 1021.3 987.1
04 17.07 В 6 н/о н/о +22.9 -4.2 16 +21 +21 комфорт 1020.0 985.8
06 17.07 В 5 н/о н/о +24.7 -6.6 12 +22 +22 комфорт 1018.1 984.0
07 17.07 ЮВ 6 н/о н/о +24.8 -7.6 11 +22 +22 комфорт 1017.5 983.4
09 17.07 ЮВ 5 н/о н/о +23.6 -7.4 12 +21 +21 комфорт 1017.2 983.1
10 17.07 ЮВ 4 н/о н/о +19.6 -6.9 16 +19 +19 1017.6 983.5
12 17.07 ЮВ 5 н/о н/о +17.8 -6.8 18 +17 +17 1018.7 984.6
13 17.07 ЮВ 5 н/о н/о +16.9 -6.8 19 +16 +16 1018.8 984.7 +25.8
15 17.07 ЮВ 5 н/о н/о +15.1 -6.4 22 +14 +14 1018.6 984.5
16 17.07 ЮВ 5 н/о н/о +14.2 -7.2 22 +13 +13 1018.6 984.5
18 17.07 ЮВ 5 н/о н/о +12.5 -6.5 26 +11 +11 1017.9 983.8
19 17.07 ЮВ 5 н/о н/о +10.7 -7.0 28 +8 +8 1017.6 983.5
21 17.07 В 4 н/о н/о +8.3 -6.6 34 +6 +6 1018.4 984.3
22 17.07 В 5 н/о н/о +10.5 -5.9 31 +8 +8 1018.7 984.6
00 18.07 В 5 н/о н/о +14.2 -4.5 27 +13 +13 1019.9 985.7
01 18.07 ЮВ 4 н/о н/о +17.7 -3.7 23 +17 +17 1020.3 986.1 +7.7
03 18.07 В 5 н/о н/о +24.0 -2.5 17 +22 +22 комфорт 1019.0 984.9
04 18.07 В 5 н/о н/о +24.9 -2.6 16 +23 +23 комфорт 1017.9 983.8
06 18.07 В 4 н/о н/о +26.8 -4.9 12 +24 +24 комфорт 1015.6 981.6
07 18.07 В 3 н/о н/о +27.4 -4.5 12 +24 +24 комфорт 1015.2 981.2
09 18.07 В 4 н/о н/о +25.8 -4.7 13 +23 +23 комфорт 1015.6 981.6
10 18.07 ЮВ 4 н/о н/о +21.6 -5.3 16 +20 +20 1015.9 981.9
12 18.07 ЮВ 3 н/о н/о +18.5 -4.9 20 +19 +19 1017.0 982.9
13 18.07 ЮВ 4 н/о н/о +17.3 -5.2 21 +17 +17 1017.1 983.0 +27.9
15 18.07 ЮВ 4 н/о н/о +14.5 -5.8 24 +14 +14 1016.7 982.6
16 18.07 ЮВ 4 н/о н/о +15.9 -4.6 24 +15 +15 1016.5 982.4
18 18.07 ЮВ 5 н/о н/о +17.3 -4.0 23 +17 +17 1016.0 982.0
19 18.07 ЮВ 5 н/о н/о +17.0 -4.3 23 +16 +16 1015.8 981.8
21 18.07 ЮВ 5 н/о н/о +14.5 -4.7 26 +13 +13 1015.9 981.9
22 18.07 ЮВ 5 н/о н/о +13.9 -4.8 27 +13 +13 1016.4 982.3
00 19.07 ЮВ 4 н/о н/о +17.3 -4.0 23 +17 +17 1017.4 983.3
01 19.07 ЮВ 4 н/о н/о +20.1 -3.5 20 +20 +20 1017.6 983.5 +13.1
03 19.07 В 5 н/о н/о +26.0 -3.5 14 +24 +24 комфорт 1016.6 982.5
04 19.07 В 4 н/о н/о +27.5 -3.3 13 +25 +25 комфорт 1015.4 981.4

 

Местоположение метеостанции Телфер (Западная Австралия, Австралия): широта -21.71 долгота 122.21 высота над уровнем моря 292 м.

В архиве по умолчанию представлена погода в Телфере за последнюю неделю. Архивные данные за месяц целиком и за предыдущие месяцы, начиная с января 2011 года, Вы можете получить, выбрав интересующий диапазон дат из раскрывающегося списка и нажав кнопку "Ввод!".


*Определитесь, кто Вы:
робот инопланетянин человек

Внимание! Время в таблицах - всемирное. Для получения местного времени необходимо прибавить поправку, которая равна 8 ч.

Смотрите также архив погоды в соседних городах и на ближайших метеорологических станциях:

Погода в Марбл-баре (Западная Австралия, Австралия) (261 км)
Погода в Мандоре (Западная Австралия, Австралия) (262 км)
Погода в Ньюмане (Западная Австралия, Австралия) (311 км)
Погода в Порт-Хедленде Apardoo (Западная Австралия, Австралия) (401 км)
Погода в Бруме (Западная Австралия, Австралия) (418 км)
Погода в Робак Запад (Западная Австралия, Австралия) (424 км)
Погода в Параберду (Западная Австралия, Австралия) (486 км)
Погода на Базе ВВС Curtin (Западная Австралия, Австралия) (489 км)
Погода в Дерби (Северная территория, Австралия) (507 км)
Погода в Фицрой-Кроссинге (Западная Австралия, Австралия) (526 км)

Пояснения к столбцам:

Ветер - указаны скорость ветра в м/с - средняя за 10 мин, порывы в срок и между сроками (в фигурных скобках) и направление, откуда дует ветер: С - северный, СВ - северо-восточный, В - восточный, ЮВ - юго-восточный, Ю - южный, ЮЗ - юго-западный, З - западный, СЗ - северо-западный.
Видимость - горизонтальная дальность видимости в метрах или километрах. При видимости от 1 до 10 км при отсутствии осадков обычно наблюдается дымка, при ухудшении видимости до 1 км и менее - туман. В сухую погоду видимость может ухудшаться дымом, пылью или мглою.
Явления - указаны атмосферные явления, наблюдавшиеся в срок или в последний час перед сроком; фигурными скобками обозначены явления, наблюдавшиеся между сроками (за 1-3 часа до срока); квадратными скобками обозначены град или гололедные отложения с указанием их диаметра в мм.
Облачность - указаны через наклонную черту общая и нижняя облачность в баллах и высота нижней границы облаков в метрах; квадратными скобками обозначены формы облаков: Ci - перистые, Cs - перисто-слоистые, Cc - перисто-кучевые, Ac - высококучевые, As - высокослоистые, Sc - слоисто-кучевые, Ns - слоисто-дождевые, Cu - кучевые, Cb - кучево-дождевые. Подробнее классификацию облаков см. в Атласе облаков (PDF).
T - Температура воздуха - температура, измеренная на высоте 2 м над землей.
Td - Температура точки росы - температура, при понижении до которой содержащийся в воздухе водяной пар достигнет насыщения.
f - Относительная влажность воздуха - влажноcть воздуха, измеренная на высоте 2 м над землей.
Te - Эффективная температура - температура, которую ощущает одетый по сезону человек в тени. Характеристика душности погоды. При расчете учитывается влияние влажности воздуха и скорости ветра на теплоощущения человека.
Tes - Эффективная температура на солнце - температура, которую ощущает человек, с поправкой на солнечный нагрев. Характеристика знойности погоды. Зависит от высоты солнца над горизонтом, облачности и скорости ветра. Ночью, в пасмурную погоду, а также при ветре 12 м/с и более поправка равна нулю.
P - Атмосферное давление - приведенное к уровню моря атмосферное давление.
Po - Атмосферное давление - измеренное на уровне метеостанции атмосферное давление.
Tmin - Минимальная температура - минимум температуры воздуха на высоте 2 м над землей.
Tmax - Максимальная температура - максимум температуры воздуха на высоте 2 м над землей.
R - Количество осадков - Количество выпавших осадков за период времени, мм. При наведении курсора мыши на число - период времени, за который выпало указанное количество осадков.
R24 - Количество осадков - Количество выпавших осадков за 24 часа, мм.
S - Снежный покров - Высота снежного покрова, см. При наведении курсора мыши на число - состояние снежного покрова и степень покрытия местности в баллах.